Location: Bergnerzell
(49.1816°N, 10.2565°E)
Time: 04:59:47
(UTC+00:00)

IDEFIX/ARIANE 42P - Pass Details

Date: 22 August 2024
Orbit: 782 x 799 km, 98.5° (Epoch: 08 September)

Event Time Altitude Azimuth Distance (km) Brightness Sun altitude
Rises 00:07:09 0° 24° (NNE) 3,289 7.0 -28.3°
Reaches altitude 10° 00:09:52 10° 36° (NE) 2,358 5.8 -28.2°
Maximum altitude 00:14:12 26° 93° (E) 1,508 4.1 -28.1°
Enters shadow 00:14:39 26° 102° (ESE) 1,520 4.0 -28.0°
